Location: Newark
(25.0000°N, 73.5000°E)
Time: 18:49:49
(UTC+00:00)

Altair - Pass Details

Date: 05 March 2021
Orbit: 1501 x 1683 km, 47.2° (Epoch: 10 April)

Event Time Altitude Azimuth Distance (km) Brightness Sun altitude
Rises 20:24:53 0° 312° (NW) 4,764 - -64.8°
Reaches altitude 10° 20:27:55 10° 312° (NW) 3,802 - -64.4°
Maximum altitude 20:37:40 84° 226° (SW) 1,648 - -62.8°
Drops below altitude 10° 20:47:45 10° 139° (SE) 3,919 - -61.0°
Sets 20:50:56 0° 138° (SE) 4,916 - -60.4°
